カタログに戻る

SL-19 DEB

運用中UNKNOWN
NORAD 23482·DEBRIS·🇷🇺 Russia

打ち上げ Dec 26, 1994 から Baikonur Cosmodrome

Loading…

次のパス (今後24時間)

TLE

最新Source: Space-Track

元期: Sep 14, 2026, 13:14 UTC

1 23482U 94085E   26257.55154639  .00000391  00000-0  10381-1 0  9992
2 23482  64.6845  87.4723 0380433 166.9167 227.3500 11.30982236306588

AllMySatでSL-19 DEBをリアルタイム追跡

Download on the App Store